Year,Month,Day,Hour,Minute,Value (Times are PST for temperature in C)
2015,02,19,07,01,3.90
2015,02,19,07,02,3.90
2015,02,19,07,03,3.90
2015,02,19,07,04,3.90
2015,02,19,07,05,3.90
2015,02,19,07,06,3.90
2015,02,19,07,07,3.90
2015,02,19,07,08,3.90
2015,02,19,07,09,3.80
2015,02,19,07,10,3.80
2015,02,19,07,11,3.80
2015,02,19,07,12,3.80
2015,02,19,07,13,3.80
2015,02,19,07,14,3.90
2015,02,19,07,15,3.90
2015,02,19,07,16,3.90
2015,02,19,07,17,4.00
2015,02,19,07,18,4.00
2015,02,19,07,19,4.10
2015,02,19,07,20,4.10
2015,02,19,07,21,4.10
2015,02,19,07,22,4.10
2015,02,19,07,23,4.20
2015,02,19,07,24,4.20
2015,02,19,07,25,4.20
2015,02,19,07,26,4.20
2015,02,19,07,27,4.20
2015,02,19,07,28,4.20
2015,02,19,07,29,4.20
2015,02,19,07,30,4.20
2015,02,19,07,31,4.20
2015,02,19,07,32,4.20
2015,02,19,07,33,4.20
2015,02,19,07,34,4.20
2015,02,19,07,35,4.10
2015,02,19,07,36,4.10
2015,02,19,07,37,4.10
2015,02,19,07,38,4.20
2015,02,19,07,39,4.20
2015,02,19,07,40,4.20
2015,02,19,07,41,4.20
2015,02,19,07,42,4.20
2015,02,19,07,43,4.20
2015,02,19,07,44,4.20
2015,02,19,07,45,4.20
2015,02,19,07,46,4.20
2015,02,19,07,47,4.20
2015,02,19,07,48,4.20
2015,02,19,07,49,4.20
2015,02,19,07,50,4.20
2015,02,19,07,51,4.20
2015,02,19,07,52,4.20
2015,02,19,07,53,4.20
2015,02,19,07,54,4.20
2015,02,19,07,55,4.20
2015,02,19,07,56,4.20
2015,02,19,07,57,4.20
2015,02,19,07,58,4.20
2015,02,19,07,59,4.20
2015,02,19,08,00,4.20
2015,02,19,08,01,4.20
2015,02,19,08,02,4.20
2015,02,19,08,03,4.20
2015,02,19,08,04,4.20
2015,02,19,08,05,4.10
2015,02,19,08,06,4.20
2015,02,19,08,07,4.20
2015,02,19,08,08,4.20
2015,02,19,08,09,4.20
2015,02,19,08,10,4.20
2015,02,19,08,11,4.20
2015,02,19,08,12,4.30
2015,02,19,08,13,4.30
2015,02,19,08,14,4.40
2015,02,19,08,15,4.40
2015,02,19,08,16,4.50
2015,02,19,08,17,4.50
2015,02,19,08,18,4.60
2015,02,19,08,19,4.60
2015,02,19,08,20,4.60
2015,02,19,08,21,4.60
2015,02,19,08,22,4.60
2015,02,19,08,23,4.70
2015,02,19,08,24,4.70
2015,02,19,08,25,4.70
2015,02,19,08,26,4.70
2015,02,19,08,27,4.70
2015,02,19,08,28,4.70
2015,02,19,08,29,4.70
2015,02,19,08,30,4.70
2015,02,19,08,31,4.70
2015,02,19,08,32,4.70
2015,02,19,08,33,4.70
2015,02,19,08,34,4.70
2015,02,19,08,35,4.70
2015,02,19,08,36,4.80
2015,02,19,08,37,4.80
2015,02,19,08,38,4.80
2015,02,19,08,39,4.80
2015,02,19,08,40,4.80
2015,02,19,08,41,4.90
2015,02,19,08,42,4.90
2015,02,19,08,43,4.90
2015,02,19,08,44,5.00
2015,02,19,08,45,5.00
2015,02,19,08,46,5.00
2015,02,19,08,47,5.10
2015,02,19,08,48,5.10
2015,02,19,08,49,5.10
2015,02,19,08,50,5.10
2015,02,19,08,51,5.10
2015,02,19,08,52,5.10
2015,02,19,08,53,5.20
2015,02,19,08,54,5.20
2015,02,19,08,55,5.30
2015,02,19,08,56,5.30
2015,02,19,08,57,5.30
2015,02,19,08,58,5.40
2015,02,19,08,59,5.40
2015,02,19,09,00,5.40
2015,02,19,09,01,5.50
2015,02,19,09,02,5.50
2015,02,19,09,03,5.60
2015,02,19,09,04,5.60
2015,02,19,09,05,5.60
2015,02,19,09,06,5.60
2015,02,19,09,07,5.60
2015,02,19,09,08,5.60
2015,02,19,09,09,5.70
2015,02,19,09,10,5.70
2015,02,19,09,11,5.70
2015,02,19,09,12,5.70
2015,02,19,09,13,5.70
2015,02,19,09,14,5.70
2015,02,19,09,15,5.70
2015,02,19,09,16,5.70
2015,02,19,09,17,5.70
2015,02,19,09,18,5.70
2015,02,19,09,19,5.70
2015,02,19,09,20,5.70
2015,02,19,09,21,5.80
2015,02,19,09,22,5.80
2015,02,19,09,23,5.80
2015,02,19,09,24,5.80
2015,02,19,09,25,5.80
2015,02,19,09,26,5.80
2015,02,19,09,27,5.80
2015,02,19,09,28,5.80
2015,02,19,09,29,5.90
2015,02,19,09,30,5.90
2015,02,19,09,31,5.90
2015,02,19,09,32,6.00
2015,02,19,09,33,6.00
2015,02,19,09,34,6.00
2015,02,19,09,35,6.00
2015,02,19,09,36,6.10
2015,02,19,09,37,6.10
2015,02,19,09,38,6.20
2015,02,19,09,39,6.20
2015,02,19,09,40,6.20
2015,02,19,09,41,6.20
2015,02,19,09,42,6.30
2015,02,19,09,43,6.30
2015,02,19,09,44,6.30
2015,02,19,09,45,6.30
2015,02,19,09,46,6.30
2015,02,19,09,47,6.40
2015,02,19,09,48,6.40
2015,02,19,09,49,6.40
2015,02,19,09,50,6.40
2015,02,19,09,51,6.40
2015,02,19,09,52,6.40
2015,02,19,09,53,6.40
2015,02,19,09,54,6.50
2015,02,19,09,55,6.60
2015,02,19,09,56,6.60
2015,02,19,09,57,6.60
2015,02,19,09,58,6.60
2015,02,19,09,59,6.60
2015,02,19,10,00,6.60
2015,02,19,10,01,6.60
2015,02,19,10,02,6.60
2015,02,19,10,03,6.70
2015,02,19,10,04,6.70
2015,02,19,10,05,6.80
2015,02,19,10,06,6.80
2015,02,19,10,07,6.80
2015,02,19,10,08,6.90
2015,02,19,10,09,6.90
2015,02,19,10,10,6.90
2015,02,19,10,11,6.90
2015,02,19,10,12,6.90
2015,02,19,10,13,7.00
2015,02,19,10,14,7.10
2015,02,19,10,15,7.10
2015,02,19,10,16,7.10
2015,02,19,10,17,7.20
2015,02,19,10,18,7.20
2015,02,19,10,19,7.20
2015,02,19,10,20,7.20
2015,02,19,10,21,7.20
2015,02,19,10,22,7.30
2015,02,19,10,23,7.30
2015,02,19,10,24,7.30
2015,02,19,10,25,7.40
2015,02,19,10,26,7.40
2015,02,19,10,27,7.40
2015,02,19,10,28,7.40
2015,02,19,10,29,7.40
2015,02,19,10,30,7.40
2015,02,19,10,31,7.50
2015,02,19,10,32,7.50
2015,02,19,10,33,7.60
2015,02,19,10,34,7.50
2015,02,19,10,35,7.50
2015,02,19,10,36,7.50
2015,02,19,10,37,7.60
2015,02,19,10,38,7.50
2015,02,19,10,39,7.50
2015,02,19,10,40,7.50
2015,02,19,10,41,7.50
2015,02,19,10,42,7.60
2015,02,19,10,43,7.60
2015,02,19,10,44,7.60
2015,02,19,10,45,7.60
2015,02,19,10,46,7.60
2015,02,19,10,47,7.60
2015,02,19,10,48,7.60
2015,02,19,10,49,7.60
2015,02,19,10,50,7.60
2015,02,19,10,51,7.60
2015,02,19,10,52,7.60
2015,02,19,10,53,7.60
2015,02,19,10,54,7.60
2015,02,19,10,55,7.60
2015,02,19,10,56,7.60
2015,02,19,10,57,7.60
2015,02,19,10,58,7.60
2015,02,19,10,59,7.60
2015,02,19,11,00,7.60
2015,02,19,11,01,7.60
2015,02,19,11,02,7.60
2015,02,19,11,03,7.60
2015,02,19,11,04,7.60
2015,02,19,11,05,7.60
2015,02,19,11,06,7.60
2015,02,19,11,07,7.60
2015,02,19,11,08,7.60
2015,02,19,11,09,7.60
2015,02,19,11,10,7.60
2015,02,19,11,11,7.70
2015,02,19,11,12,7.70
2015,02,19,11,13,7.70
2015,02,19,11,14,7.70
2015,02,19,11,15,7.70
2015,02,19,11,16,7.70
2015,02,19,11,17,7.80
2015,02,19,11,18,7.80
2015,02,19,11,19,7.80
2015,02,19,11,20,7.80
2015,02,19,11,21,7.90
2015,02,19,11,22,7.90
2015,02,19,11,23,7.90
2015,02,19,11,24,8.00
2015,02,19,11,25,8.10
2015,02,19,11,26,8.10
2015,02,19,11,27,8.10
2015,02,19,11,28,8.10
2015,02,19,11,29,8.20
2015,02,19,11,30,8.20
2015,02,19,11,31,8.20
2015,02,19,11,32,8.20
2015,02,19,11,33,8.20
2015,02,19,11,34,8.20
2015,02,19,11,35,8.20
2015,02,19,11,36,8.20
2015,02,19,11,37,8.20
2015,02,19,11,38,8.30
2015,02,19,11,39,8.30
2015,02,19,11,40,8.30
2015,02,19,11,41,8.30
2015,02,19,11,42,8.30
2015,02,19,11,43,8.30
2015,02,19,11,44,8.40
2015,02,19,11,45,8.40
2015,02,19,11,46,8.40
2015,02,19,11,47,8.40
2015,02,19,11,48,8.40
2015,02,19,11,49,8.40
2015,02,19,11,50,8.40
2015,02,19,11,51,8.40
2015,02,19,11,52,8.40
2015,02,19,11,53,8.40
2015,02,19,11,54,8.40
2015,02,19,11,55,8.40
2015,02,19,11,56,8.40
2015,02,19,11,57,8.40
2015,02,19,11,58,8.40
2015,02,19,11,59,8.40
2015,02,19,12,00,8.40
2015,02,19,12,01,8.40
2015,02,19,12,02,8.40
2015,02,19,12,03,8.40
